sat.trackr.live / text

‹ back to catalog

STARLINK-35738

NORAD 67116 · 2025-299Q

PAYLOAD ACTIVE UNKNOWN

§ Identity

Operator
Country
US
Launch date
2025-12-15
Launch site
AFETR
Launch vehicle
Mass (kg)
RCS (m²)

Purposes: comms

External: N2YO · Heavens-Above · Gunter

§ Orbital elements

Epoch: 2026-05-25T03:31:44.262048Z

Period
94.27 min
Inclination
42.9974°
Eccentricity
0.0000398
Mean motion
15.27589552 rev/d
Perigee alt
482.7 km
Apogee alt
483.3 km
Semi-major
6,861.2 km
B*
6.1418e-4
RAAN
96.8346°
Arg perigee
206.4698°
Mean anomaly
153.6134°
Rev number
2,481

§ Raw data

STARLINK-357381 67116U 25299Q   26145.14704007  .00016682  00000+0  61418-3 0  99942 67116  42.9974  96.8346 0000398 206.4698 153.6134 15.27589552 24816

JSON: /api/v1/satellites/67116 · /tle

For live sub-satellite position, see the globe view (requires WebGL).

§ Visibility from observer

Set your observer location to see the next 7 days of passes ≥ 10°. The values pass through the URL so the page stays shareable.

No JS? Fill the form by hand. The geolocation button needs JavaScript.